Location: Poughquag
(41.6090°N, 73.6820°W)
Time: 14:00:45
(UTC-05:00)

Hubble Space Telescope - Pass Details

Date: 24 November 2019
Orbit: 536 x 540 km, 28.5° (Epoch: 08 December)

Event Time Altitude Azimuth Distance (km) Brightness Sun altitude
Rises 18:34:26 0° 242° (WSW) 2,668 5.5 -23.2°
Reaches altitude 10° 18:38:07 10° 208° (SSW) 1,778 3.8 -23.9°
Maximum altitude 18:39:30 11° 188° (S) 1,685 3.4 -24.2°
Enters shadow 18:40:17 11° 177° (S) 1,715 3.4 -24.3°
